Zurück zum Katalog

FREGAT DEB

LostLEO
NORAD 45981·DEBRIS·🇷🇺 Russia

Gestartet Jul 18, 2011 von Baikonur Cosmodrome

Loading…

Nächste Überflüge (nächste 24 Stunden)

TLE

VeraltetSource: Space-Track

Epoche: Jan 24, 2024, 18:15 UTC

1 45981U 11037GN  24024.76080846  .08677380  00000-0  11619+1 0  9997
2 45981  51.5157 171.8231 0611633 108.3958 258.4438 13.93638647 77266

Verfolge FREGAT DEB in Echtzeit mit AllMySat

Download on the App Store